| time (UTC) | temp C | wind direction | speed KPH | gust KPH | rain 1hr cm | rain 24hr cm | rain mn cm | humidity % | barometer mb |
| 20260505003847 | 25 | 222 | 1.6 | 4.8 | 0.00 | 0.03 | 0.03 | 70 | 1016.9 |
| 20260505003347 | 25 | 222 | 1.6 | 3.2 | 0.00 | 0.03 | 0.03 | 70 | 1016.9 |
| 20260505002847 | 25 | 222 | 1.6 | 6.4 | 0.00 | 0.03 | 0.03 | 70 | 1017.0 |
| 20260505002347 | 25 | 222 | 1.6 | 6.4 | 0.00 | 0.03 | 0.03 | 71 | 1017.0 |
| 20260505001847 | 25 | 222 | 1.6 | 3.2 | 0.00 | 0.03 | 0.03 | 72 | 1017.1 |
| 20260505001347 | 25 | 222 | 1.6 | 4.8 | 0.00 | 0.03 | 0.03 | 72 | 1017.1 |
| 20260505000847 | 25 | 222 | 3.2 | 6.4 | 0.00 | 0.03 | 0.03 | 73 | 1017.1 |
| 20260505000347 | 25 | 222 | 3.2 | 8.0 | 0.00 | 0.03 | 0.03 | 73 | 1017.1 |
| 20260504235847 | 25 | 220 | 3.2 | 6.4 | 0.00 | 0.03 | 0.03 | 74 | 1017.1 |
| 20260504235347 | 25 | 221 | 3.2 | 6.4 | 0.00 | 0.03 | 0.03 | 74 | 1017.2 |
| 20260504234847 | 25 | 222 | 3.2 | 6.4 | 0.00 | 0.03 | 0.03 | 74 | 1017.3 |
| 20260504234347 | 25 | 221 | 3.2 | 11.3 | 0.00 | 0.03 | 0.03 | 76 | 1017.4 |
| 20260504233847 | 24 | 96 | 3.2 | 6.4 | 0.00 | 0.03 | 0.03 | 76 | 1017.5 |
| 20260504233347 | 23 | 91 | 3.2 | 6.4 | 0.00 | 0.03 | 0.03 | 79 | 1017.5 |
| 20260504232847 | 23 | 90 | 1.6 | 6.4 | 0.00 | 0.03 | 0.03 | 81 | 1017.4 |
| 20260504232347 | 23 | 90 | 1.6 | 4.8 | 0.00 | 0.03 | 0.03 | 83 | 1017.5 |
| 20260504231847 | 22 | 90 | 1.6 | 6.4 | 0.00 | 0.03 | 0.03 | 84 | 1017.5 |
| 20260504231347 | 22 | 90 | 1.6 | 4.8 | 0.00 | 0.03 | 0.03 | 86 | 1017.5 |
| 20260504230847 | 22 | 90 | 3.2 | 4.8 | 0.00 | 0.03 | 0.03 | 88 | 1017.6 |
| 20260504230347 | 21 | 90 | 1.6 | 6.4 | 0.00 | 0.03 | 0.03 | 89 | 1017.6 |
| 20260504225847 | 21 | 90 | 1.6 | 0.0 | 0.00 | 0.03 | 0.03 | 91 | 1017.6 |
| 20260504225347 | 21 | 90 | 3.2 | 6.4 | 0.00 | 0.03 | 0.03 | 92 | 1017.6 |
| 20260504224847 | 21 | 90 | 3.2 | 4.8 | 0.00 | 0.03 | 0.03 | 93 | 1017.6 |
| 20260504224347 | 20 | 90 | 1.6 | 6.4 | 0.00 | 0.03 | 0.03 | 94 | 1017.6 |
| 20260504223847 | 20 | 90 | 1.6 | 4.8 | 0.00 | 0.03 | 0.03 | 94 | 1017.7 |
| 20260504223546 | 20 | 90 | 1.6 | 4.8 | 0.00 | 0.03 | 0.03 | 95 | 1017.7 |
| 20260504223347 | 20 | 90 | 1.6 | 4.8 | 0.00 | 0.03 | 0.03 | 95 | 1017.7 |
| 20260504222847 | 20 | 90 | 1.6 | 3.2 | 0.00 | 0.03 | 0.03 | 95 | 1017.6 |
| 20260504222348 | 20 | 86 | 1.6 | 3.2 | 0.00 | 0.03 | 0.03 | 95 | 1017.7 |
| 20260504221847 | 19 | 90 | 1.6 | 3.2 | 0.00 | 0.03 | 0.03 | 95 | 1017.7 |
| 20260504221348 | 19 | 90 | 1.6 | 3.2 | 0.00 | 0.03 | 0.03 | 95 | 1017.6 |
| 20260504220848 | 19 | 90 | 3.2 | 6.4 | 0.00 | 0.03 | 0.03 | 95 | 1017.7 |
| 20260504220348 | 19 | 90 | 1.6 | 6.4 | 0.00 | 0.03 | 0.03 | 95 | 1017.7 |
| 20260504215848 | 19 | 95 | 1.6 | 6.4 | 0.03 | 0.03 | 0.03 | 96 | 1017.7 |
| 20260504215348 | 19 | 95 | 1.6 | 6.4 | 0.03 | 0.03 | 0.03 | 96 | 1017.6 |
| 20260504214848 | 19 | 92 | 1.6 | 3.2 | 0.03 | 0.03 | 0.03 | 96 | 1017.5 |
| 20260504214348 | 18 | 96 | 1.6 | 3.2 | 0.03 | 0.03 | 0.03 | 96 | 1017.4 |
| 20260504213848 | 18 | 96 | 0.0 | 3.2 | 0.03 | 0.03 | 0.03 | 97 | 1017.5 |
| 20260504213348 | 18 | 96 | 0.0 | 0.0 | 0.03 | 0.03 | 0.03 | 97 | 1017.4 |
| 20260504212848 | 18 | 96 | 0.0 | 1.6 | 0.03 | 0.03 | 0.03 | 96 | 1017.3 |
| 20260504212348 | 17 | 96 | 0.0 | 1.6 | 0.03 | 0.03 | 0.03 | 96 | 1017.3 |
| 20260504211848 | 17 | 96 | 0.0 | 0.0 | 0.03 | 0.03 | 0.03 | 96 | 1017.3 |
| 20260504211838 | 17 | 96 | 0.0 | 0.0 | 0.03 | 0.03 | 0.03 | 95 | 1017.2 |
| 20260504211348 | 17 | 96 | 0.0 | 0.0 | 0.03 | 0.03 | 0.03 | 95 | 1017.3 |
| 20260504210848 | 17 | 96 | 0.0 | 0.0 | 0.03 | 0.03 | 0.03 | 95 | 1017.2 |
| 20260504210348 | 17 | 96 | 0.0 | 0.0 | 0.03 | 0.03 | 0.03 | 95 | 1017.2 |
| 20260504210038 | 17 | 96 | 0.0 | 0.0 | 0.00 | 0.00 | 0.00 | 95 | 1017.1 |
| 20260504205848 | 17 | 96 | 0.0 | 0.0 | 0.00 | 0.00 | 0.00 | 95 | 1017.2 |
| 20260504205348 | 17 | 96 | 0.0 | 0.0 | 0.00 | 0.00 | 0.00 | 95 | 1017.1 |
| 20260504204848 | 17 | 96 | 0.0 | 0.0 | 0.00 | 0.00 | 0.00 | 95 | 1017.0 |
| 20260504204348 | 17 | 96 | 0.0 | 0.0 | 0.00 | 0.00 | 0.00 | 95 | 1017.0 |
| 20260504204335 | 17 | 96 | 0.0 | 0.0 | 0.00 | 0.00 | 0.00 | 94 | 1016.9 |
| 20260504203848 | 17 | 96 | 0.0 | 0.0 | 0.00 | 0.00 | 0.00 | 94 | 1016.9 |
| 20260504203348 | 17 | 96 | 0.0 | 0.0 | 0.00 | 0.00 | 0.00 | 94 | 1016.9 |
| 20260504202848 | 17 | 96 | 0.0 | 0.0 | 0.00 | 0.00 | 0.00 | 94 | 1017.0 |
| 20260504202348 | 17 | 96 | 0.0 | 0.0 | 0.00 | 0.00 | 0.00 | 94 | 1016.8 |
| 20260504201848 | 17 | 96 | 0.0 | 0.0 | 0.00 | 0.00 | 0.00 | 94 | 1016.9 |
| 20260504201634 | 17 | 96 | 0.0 | 0.0 | 0.00 | 0.00 | 0.00 | 94 | 1016.8 |
| 20260504201348 | 17 | 96 | 0.0 | 0.0 | 0.00 | 0.00 | 0.00 | 94 | 1016.8 |
| 20260504201138 | 17 | 96 | 0.0 | 0.0 | 0.00 | 0.00 | 0.00 | 94 | 1016.9 |
| 20260504200848 | 17 | 96 | 0.0 | 0.0 | 0.00 | 0.00 | 0.00 | 94 | 1016.9 |
| 20260504200348 | 17 | 96 | 0.0 | 0.0 | 0.00 | 0.00 | 0.00 | 94 | 1016.8 |
| 20260504195848 | 17 | 96 | 0.0 | 0.0 | 0.00 | 0.00 | 0.00 | 94 | 1016.7 |
| 20260504195535 | 16 | 96 | 0.0 | 0.0 | 0.00 | 0.00 | 0.00 | 94 | 1016.6 |
| 20260504195348 | 17 | 96 | 0.0 | 0.0 | 0.00 | 0.00 | 0.00 | 94 | 1016.8 |
| 20260504194848 | 17 | 96 | 0.0 | 0.0 | 0.00 | 0.00 | 0.00 | 94 | 1016.7 |
| 20260504194348 | 16 | 96 | 0.0 | 0.0 | 0.00 | 0.00 | 0.00 | 94 | 1016.6 |
| 20260504193848 | 16 | 96 | 0.0 | 0.0 | 0.00 | 0.00 | 0.00 | 94 | 1016.5 |
| 20260504193640 | 17 | 96 | 0.0 | 0.0 | 0.00 | 0.00 | 0.00 | 94 | 1016.4 |
| 20260504193348 | 16 | 96 | 0.0 | 0.0 | 0.00 | 0.00 | 0.00 | 94 | 1016.3 |
| 20260504192848 | 17 | 96 | 0.0 | 0.0 | 0.00 | 0.00 | 0.00 | 94 | 1016.4 |
| 20260504192535 | 17 | 96 | 0.0 | 0.0 | 0.00 | 0.00 | 0.00 | 94 | 1016.2 |
| 20260504192348 | 17 | 96 | 0.0 | 0.0 | 0.00 | 0.00 | 0.00 | 94 | 1016.2 |
| 20260504191848 | 17 | 96 | 0.0 | 0.0 | 0.00 | 0.00 | 0.00 | 94 | 1016.2 |
| 20260504191348 | 17 | 96 | 0.0 | 0.0 | 0.00 | 0.00 | 0.00 | 94 | 1016.2 |
| 20260504190848 | 17 | 96 | 0.0 | 0.0 | 0.00 | 0.00 | 0.00 | 94 | 1016.1 |
| 20260504190348 | 17 | 96 | 0.0 | 0.0 | 0.00 | 0.00 | 0.00 | 94 | 1016.1 |
| 20260504185848 | 17 | 96 | 0.0 | 0.0 | 0.00 | 0.00 | 0.00 | 94 | 1016.1 |
| 20260504185348 | 17 | 96 | 0.0 | 0.0 | 0.00 | 0.00 | 0.00 | 94 | 1016.0 |
| 20260504184944 | 17 | 96 | 0.0 | 0.0 | 0.00 | 0.00 | 0.00 | 94 | 1016.0 |
| 20260504184848 | 17 | 96 | 0.0 | 0.0 | 0.00 | 0.00 | 0.00 | 94 | 1016.0 |
| 20260504184643 | 17 | 96 | 0.0 | 0.0 | 0.00 | 0.00 | 0.00 | 94 | 1016.0 |
| 20260504184348 | 17 | 96 | 0.0 | 0.0 | 0.00 | 0.00 | 0.00 | 94 | 1016.0 |
| 20260504183848 | 17 | 96 | 0.0 | 0.0 | 0.00 | 0.00 | 0.00 | 94 | 1016.0 |
| 20260504183443 | 17 | 96 | 0.0 | 0.0 | 0.00 | 0.00 | 0.00 | 94 | 1016.0 |
| 20260504183348 | 17 | 96 | 0.0 | 0.0 | 0.00 | 0.00 | 0.00 | 94 | 1016.0 |
| 20260504182848 | 17 | 96 | 0.0 | 0.0 | 0.00 | 0.00 | 0.00 | 93 | 1016.0 |
| 20260504182550 | 17 | 96 | 0.0 | 0.0 | 0.00 | 0.00 | 0.00 | 93 | 1015.8 |
| 20260504182348 | 17 | 96 | 0.0 | 0.0 | 0.00 | 0.00 | 0.00 | 93 | 1016.0 |
| 20260504181848 | 17 | 96 | 0.0 | 0.0 | 0.00 | 0.00 | 0.00 | 93 | 1015.9 |
| 20260504181348 | 17 | 96 | 0.0 | 0.0 | 0.00 | 0.00 | 0.00 | 93 | 1015.8 |
| 20260504180848 | 17 | 96 | 0.0 | 0.0 | 0.00 | 0.00 | 0.00 | 93 | 1015.9 |
| 20260504180348 | 17 | 96 | 0.0 | 0.0 | 0.00 | 0.00 | 0.00 | 93 | 1015.8 |
| 20260504175848 | 17 | 96 | 0.0 | 0.0 | 0.00 | 0.00 | 0.00 | 92 | 1015.8 |
| 20260504175348 | 17 | 96 | 0.0 | 0.0 | 0.00 | 0.00 | 0.00 | 93 | 1015.8 |
| 20260504174848 | 17 | 96 | 0.0 | 0.0 | 0.00 | 0.00 | 0.00 | 93 | 1015.8 |
| 20260504174348 | 17 | 96 | 0.0 | 0.0 | 0.00 | 0.00 | 0.00 | 93 | 1015.7 |
| 20260504174201 | 17 | 96 | 0.0 | 0.0 | 0.00 | 0.00 | 0.00 | 93 | 1015.7 |
| 20260504173848 | 17 | 96 | 0.0 | 0.0 | 0.00 | 0.00 | 0.00 | 93 | 1015.7 |
| 20260504173348 | 17 | 96 | 0.0 | 0.0 | 0.00 | 0.00 | 0.00 | 93 | 1015.7 |
| 20260504172848 | 17 | 96 | 0.0 | 0.0 | 0.00 | 0.00 | 0.00 | 93 | 1015.7 |
| 20260504172759 | 17 | 96 | 0.0 | 0.0 | 0.00 | 0.00 | 0.00 | 93 | 1015.7 |
| 20260504172348 | 17 | 96 | 0.0 | 0.0 | 0.00 | 0.00 | 0.00 | 93 | 1015.7 |
| 20260504171848 | 17 | 96 | 0.0 | 0.0 | 0.00 | 0.00 | 0.00 | 93 | 1015.7 |
| 20260504171348 | 17 | 96 | 0.0 | 0.0 | 0.00 | 0.00 | 0.00 | 93 | 1015.8 |
| 20260504170848 | 17 | 96 | 0.0 | 0.0 | 0.00 | 0.00 | 0.00 | 93 | 1015.7 |
| 20260504170348 | 17 | 96 | 0.0 | 0.0 | 0.00 | 0.00 | 0.00 | 93 | 1015.9 |
| 20260504160348 | 18 | 96 | 0.0 | 1.6 | 0.00 | 0.00 | 0.00 | 93 | 1016.1 |
| 20260504150848 | 18 | 96 | 0.0 | 0.0 | 0.00 | 0.00 | 0.00 | 93 | 1016.4 |
| 20260504150348 | 18 | 96 | 0.0 | 1.6 | 0.00 | 0.00 | 0.00 | 93 | 1016.4 |
| 20260504140848 | 18 | 96 | 0.0 | 0.0 | 0.00 | 0.00 | 0.00 | 91 | 1016.9 |
| 20260504140552 | 18 | 96 | 0.0 | 0.0 | 0.00 | 0.00 | 0.00 | 91 | 1016.8 |
| 20260504140348 | 18 | 96 | 0.0 | 0.0 | 0.00 | 0.00 | 0.00 | 91 | 1016.8 |
| 20260504130348 | 18 | 96 | 0.0 | 0.0 | 0.00 | 0.00 | 0.00 | 90 | 1017.4 |
| 20260504110348 | 20 | 96 | 0.0 | 0.0 | 0.00 | 0.00 | 0.00 | 87 | 1017.7 |
| 20260504100349 | 21 | 96 | 0.0 | 1.6 | 0.00 | 0.00 | 0.00 | 84 | 1017.6 |
| 20260504081849 | 23 | 34 | 3.2 | 12.9 | 0.00 | 0.00 | 0.00 | 76 | 1016.3 |
| 20260504081440 | 23 | 76 | 3.2 | 8.0 | 0.00 | 0.00 | 0.00 | 75 | 1016.3 |
| 20260504081349 | 23 | 76 | 3.2 | 8.0 | 0.00 | 0.00 | 0.00 | 75 | 1016.3 |
| 20260504080849 | 23 | 65 | 3.2 | 9.7 | 0.00 | 0.00 | 0.00 | 75 | 1016.2 |
| 20260504080349 | 23 | 65 | 3.2 | 6.4 | 0.00 | 0.00 | 0.00 | 74 | 1016.1 |
| 20260504080252 | 23 | 63 | 3.2 | 8.0 | 0.00 | 0.00 | 0.00 | 74 | 1016.1 |
| 20260504070349 | 25 | 87 | 3.2 | 8.0 | 0.00 | 0.00 | 0.00 | 68 | 1015.4 |
| 20260504050349 | 28 | 55 | 4.8 | 9.7 | 0.00 | 0.00 | 0.00 | 55 | 1014.9 |
| 20260504045849 | 28 | 105 | 4.8 | 12.9 | 0.00 | 0.00 | 0.00 | 55 | 1014.9 |
| 20260504045349 | 28 | 115 | 3.2 | 9.7 | 0.00 | 0.00 | 0.00 | 54 | 1014.9 |
| 20260504044849 | 28 | 122 | 3.2 | 6.4 | 0.00 | 0.00 | 0.00 | 55 | 1015.0 |
| 20260504044349 | 28 | 124 | 3.2 | 8.0 | 0.00 | 0.00 | 0.00 | 56 | 1015.0 |
| 20260504043849 | 28 | 125 | 4.8 | 11.3 | 0.00 | 0.00 | 0.00 | 56 | 1015.0 |
| 20260504043349 | 27 | 105 | 6.4 | 12.9 | 0.00 | 0.00 | 0.00 | 55 | 1015.0 |
| 20260504042947 | 27 | 126 | 6.4 | 14.5 | 0.00 | 0.00 | 0.00 | 57 | 1015.0 |
| 20260504042849 | 27 | 126 | 6.4 | 14.5 | 0.00 | 0.00 | 0.00 | 57 | 1015.0 |
| 20260504042349 | 27 | 124 | 4.8 | 17.7 | 0.00 | 0.00 | 0.00 | 57 | 1015.0 |
| 20260504041849 | 27 | 103 | 3.2 | 11.3 | 0.00 | 0.00 | 0.00 | 56 | 1015.0 |
| 20260504041349 | 27 | 64 | 3.2 | 9.7 | 0.00 | 0.00 | 0.00 | 56 | 1015.0 |
| 20260504040852 | 27 | 79 | 4.8 | 9.7 | 0.00 | 0.00 | 0.00 | 57 | 1015.1 |
| 20260504040833 | 27 | 78 | 4.8 | 12.9 | 0.00 | 0.00 | 0.00 | 57 | 1015.1 |
| 20260504040349 | 27 | 76 | 4.8 | 14.5 | 0.00 | 0.00 | 0.00 | 58 | 1015.1 |
| 20260504035849 | 27 | 78 | 4.8 | 12.9 | 0.00 | 0.00 | 0.00 | 57 | 1015.1 |
| 20260504035349 | 27 | 119 | 3.2 | 12.9 | 0.00 | 0.00 | 0.00 | 58 | 1015.1 |
| 20260504034849 | 26 | 80 | 1.6 | 4.8 | 0.00 | 0.00 | 0.00 | 59 | 1015.2 |
| 20260504034349 | 27 | 80 | 3.2 | 6.4 | 0.00 | 0.00 | 0.00 | 59 | 1015.3 |
| 20260504033849 | 27 | 81 | 4.8 | 12.9 | 0.00 | 0.00 | 0.00 | 59 | 1015.3 |
| 20260504033539 | 27 | 109 | 3.2 | 9.7 | 0.00 | 0.00 | 0.00 | 57 | 1015.4 |
| 20260504033349 | 27 | 69 | 4.8 | 11.3 | 0.00 | 0.00 | 0.00 | 57 | 1015.3 |
| 20260504032849 | 27 | 38 | 4.8 | 9.7 | 0.00 | 0.00 | 0.00 | 57 | 1015.4 |
| 20260504032349 | 27 | 109 | 3.2 | 9.7 | 0.00 | 0.00 | 0.00 | 57 | 1015.4 |
| 20260504031849 | 27 | 105 | 3.2 | 16.1 | 0.00 | 0.00 | 0.00 | 57 | 1015.4 |
| 20260504031349 | 27 | 120 | 4.8 | 8.0 | 0.00 | 0.00 | 0.00 | 59 | 1015.5 |
| 20260504031246 | 27 | 121 | 4.8 | 14.5 | 0.00 | 0.00 | 0.00 | 59 | 1015.6 |
| 20260504030849 | 27 | 121 | 4.8 | 14.5 | 0.00 | 0.00 | 0.00 | 59 | 1015.6 |
| 20260504030349 | 27 | 113 | 4.8 | 11.3 | 0.00 | 0.00 | 0.00 | 59 | 1015.6 |
| 20260504025849 | 27 | 109 | 4.8 | 12.9 | 0.00 | 0.00 | 0.00 | 58 | 1015.7 |
| 20260504025349 | 28 | 111 | 4.8 | 12.9 | 0.00 | 0.00 | 0.00 | 57 | 1015.8 |
| 20260504024849 | 28 | 113 | 4.8 | 11.3 | 0.00 | 0.00 | 0.00 | 56 | 1015.8 |
| 20260504024646 | 28 | 44 | 4.8 | 16.1 | 0.00 | 0.00 | 0.00 | 57 | 1015.8 |
| 20260504024349 | 28 | 44 | 4.8 | 16.1 | 0.00 | 0.00 | 0.00 | 57 | 1015.8 |
| 20260504023849 | 28 | 54 | 3.2 | 9.7 | 0.00 | 0.00 | 0.00 | 58 | 1015.9 |
| 20260504023349 | 27 | 59 | 3.2 | 19.3 | 0.00 | 0.00 | 0.00 | 58 | 1016.0 |
| 20260504022849 | 27 | 105 | 4.8 | 12.9 | 0.00 | 0.00 | 0.00 | 60 | 1016.1 |
| 20260504022349 | 26 | 127 | 3.2 | 14.5 | 0.00 | 0.00 | 0.00 | 61 | 1016.2 |
| 20260504021849 | 26 | 129 | 1.6 | 4.8 | 0.00 | 0.00 | 0.00 | 63 | 1016.4 |
| 20260504021643 | 26 | 130 | 1.6 | 4.8 | 0.00 | 0.00 | 0.00 | 63 | 1016.5 |
| 20260504021349 | 26 | 130 | 1.6 | 4.8 | 0.00 | 0.00 | 0.00 | 63 | 1016.5 |
| 20260504020849 | 25 | 130 | 1.6 | 3.2 | 0.00 | 0.00 | 0.00 | 65 | 1016.6 |
| 20260504020544 | 26 | 126 | 3.2 | 8.0 | 0.00 | 0.00 | 0.00 | 63 | 1016.9 |
| 20260504020349 | 26 | 130 | 1.6 | 4.8 | 0.00 | 0.00 | 0.00 | 64 | 1016.7 |
| 20260504015849 | 26 | 130 | 3.2 | 4.8 | 0.00 | 0.00 | 0.00 | 64 | 1016.8 |
| 20260504015349 | 26 | 126 | 3.2 | 8.0 | 0.00 | 0.00 | 0.00 | 63 | 1016.9 |
| 20260504014937 | 27 | 122 | 3.2 | 9.7 | 0.00 | 0.00 | 0.00 | 61 | 1017.2 |
| 20260504014849 | 26 | 131 | 3.2 | 8.0 | 0.00 | 0.00 | 0.00 | 63 | 1017.0 |
| 20260504014349 | 26 | 124 | 4.8 | 11.3 | 0.00 | 0.00 | 0.00 | 62 | 1017.0 |
| 20260504013849 | 27 | 122 | 3.2 | 9.7 | 0.00 | 0.00 | 0.00 | 61 | 1017.2 |
| 20260504013434 | 27 | 117 | 3.2 | 11.3 | 0.00 | 0.00 | 0.00 | 61 | 1017.3 |
| 20260504013349 | 27 | 117 | 3.2 | 11.3 | 0.00 | 0.00 | 0.00 | 61 | 1017.3 |
| 20260504012849 | 27 | 117 | 3.2 | 6.4 | 0.00 | 0.00 | 0.00 | 62 | 1017.4 |
| 20260504012436 | 26 | 117 | 3.2 | 9.7 | 0.00 | 0.00 | 0.00 | 63 | 1017.6 |
| 20260504012349 | 27 | 117 | 3.2 | 6.4 | 0.00 | 0.00 | 0.00 | 62 | 1017.4 |
| 20260504011849 | 26 | 116 | 3.2 | 6.4 | 0.00 | 0.00 | 0.00 | 62 | 1017.5 |
| 20260504011349 | 26 | 117 | 3.2 | 9.7 | 0.00 | 0.00 | 0.00 | 63 | 1017.6 |
| 20260504011046 | 26 | 119 | 3.2 | 9.7 | 0.00 | 0.00 | 0.00 | 63 | 1017.7 |
| 20260504010849 | 26 | 119 | 3.2 | 9.7 | 0.00 | 0.00 | 0.00 | 63 | 1017.7 |
| 20260504010349 | 26 | 117 | 3.2 | 9.7 | 0.00 | 0.00 | 0.00 | 64 | 1017.8 |
| 20260504005849 | 26 | 117 | 3.2 | 11.3 | 0.00 | 0.00 | 0.00 | 64 | 1017.9 |
| 20260504005349 | 26 | 115 | 3.2 | 11.3 | 0.00 | 0.00 | 0.00 | 65 | 1017.9 |
| 20260504004849 | 26 | 103 | 4.8 | 11.3 | 0.00 | 0.00 | 0.00 | 64 | 1018.0 |
| 20260504004838 | 26 | 169 | 3.2 | 9.7 | 0.00 | 0.00 | 0.00 | 65 | 1018.1 |
| 20260504004349 | 26 | 169 | 3.2 | 9.7 | 0.00 | 0.00 | 0.00 | 65 | 1018.1 |